Theta_e
361 362 364 364 365 367 365 367 372 370 375 365 366 365 365 364 367 364 361 362 361 359 359 358 356 357 348 346 339 338 339 339 333 342 345 350 343 336 335 338 336 334 334
359 363 363 365 365 364 364 365 367 369 375 371 368 368 366 363 364 362 360 357 359 359 357 357 354 351 350 348 342 340 340 343 335 338 343 345 343 335 337 338 332 336 332
359 359 359 361 362 363 364 366 366 367 370 369 368 364 364 363 363 363 360 360 360 359 358 355 353 352 348 343 339 339 335 335 337 332 339 342 342 340 337 338 338 338 334
357 358 359 363 362 361 364 366 366 369 366 368 368 367 367 365 363 362 361 360 359 358 358 355 353 351 348 345 342 338 336 338 334 335 332 337 336 339 335 332 331 333 331
366 363 366 371 378 375 370 372 366 368 368 368 368 368 367 367 365 364 362 360 359 357 358 357 354 353 349 347 339 339 335 336 334 330 329 333 332 333 330 332 329 329 331
341 340 352 358 366 372 374 376 374 367 366 368 368 368 366 365 351 347 359 361 360 357 355 357 356 351 346 341 337 338 340 336 329 332 329 326 332 331 331 329 328 328 321
338 337 334 341 349 351 348 352 364 364 366 365 366 367 367 368 346 341 347 360 359 358 357 356 354 348 340 336 334 334 334 334 339 336 332 335 336 333 332 331 331 328 325
344 341 345 340 343 344 338 333 336 350 360 365 365 365 365 367 345 341 341 357 360 360 359 358 354 346 340 337 335 331 330 330 334 332 334 335 338 343 337 335 334 329 326
345 344 343 343 347 349 344 335 336 353 361 365 366 365 365 365 342 338 340 355 355 357 359 358 354 346 335 332 333 330 330 328 330 332 332 328 329 336 338 331 326 323 319
360 361 362 359 356 355 354 355 362 366 362 364 363 364 358 366 345 334 337 358 353 351 353 356 339 341 329 327 331 329 326 327 327 326 326 327 331 334 335 332 328 320 318
359 361 362 364 361 362 357 360 358 364 363 366 366 365 365 363 363 328 327 356 356 348 344 342 340 324 323 323 326 330 329 330 329 327 325 327 330 328 329 330 332 323 320
361 363 363 363 357 354 357 356 357 361 358 356 356 363 365 365 341 327 325 327 342 345 342 341 337 323 321 321 321 324 324 326 328 325 323 323 323 323 325 326 328 332 334
357 357 359 362 360 361 361 359 353 353 350 349 343 345 353 361 358 326 322 323 326 343 342 334 327 320 318 318 319 322 322 326 325 321 320 322 321 321 322 324 328 332 332
349 350 352 353 354 357 352 351 349 345 343 345 345 343 346 349 348 337 329 328 324 330 329 330 327 322 322 325 323 323 325 325 321 316 315 317 319 319 318 321 321 324 325
344 342 343 340 343 342 346 341 341 346 340 342 344 345 342 345 350 329 330 333 334 327 323 324 323 324 321 321 323 325 324 321 320 319 317 320 320 318 323 323 321 323 321
338 336 332 330 330 335 334 334 321 318 317 313 316 330 342 331 317 314 311 312 313 312 320 321 320 320 319 319 318 319 319 319 319 319 320 318 319 320 321 322 322 320 320
340 339 333 329 332 332 328 327 324 326 312 310 308 309 310 320 311 305 305 306 307 313 328 321 321 321 320 320 319 319 317 319 318 315 316 314 319 320 320 320 319 320 317
339 322 331 329 326 327 331 332 328 327 328 332 319 314 306 303 303 302 301 307 311 316 329 325 324 324 323 323 321 320 319 320 318 317 318 319 321 321 319 318 318 316 316
333 330 328 328 330 326 329 326 325 325 324 324 331 313 309 300 300 299 300 323 321 319 325 327 326 325 325 323 321 319 318 317 317 317 316 316 316 320 318 316 316 311 313
328 325 322 326 323 324 324 324 324 325 326 328 330 329 324 318 325 322 312 314 323 322 323 325 325 325 323 321 320 318 315 313 314 315 315 314 314 318 317 316 316 315 315
323 325 324 324 322 322 322 322 322 323 323 325 331 329 311 329 335 331 321 316 319 322 322 322 324 325 323 321 320 316 314 313 313 315 316 318 318 316 316 315 314 315 319
323 323 324 323 324 324 324 324 323 324 323 323 326 331 309 332 330 335 332 322 321 323 324 323 323 325 323 322 321 318 315 315 315 316 318 318 316 315 314 313 313 314 318
323 323 323 323 324 321 324 323 323 324 323 324 324 327 323 327 329 335 333 329 327 325 326 324 324 324 326 324 323 321 317 317 321 321 318 317 314 314 314 313 314 318 318
325 324 323 323 323 323 323 324 326 318 323 325 325 324 325 328 329 332 336 333 329 328 327 326 325 325 325 324 323 323 323 323 322 320 319 316 315 311 315 317 319 319 319
318 319 320 322 322 321 321 324 324 325 325 326 326 326 327 332 334 330 335 335 333 331 328 327 326 325 325 324 323 323 313 303 317 312 319 317 316 315 316 318 320 318 320
320 322 322 321 321 322 323 325 325 325 324 326 326 328 326 330 331 334 335 334 331 327 327 326 326 325 325 324 323 313 295 297 307 303 319 319 317 317 320 319 320 319 318
Wind_Speed
14 13 13 12 13 12 10 9 7 7 4 11 8 8 8 8 6 7 8 6 9 6 4 6 5 3 3 1 3 2 3 1 1 2 7 7 5 7 7 9 10 7 6
14 11 13 12 11 12 12 10 10 8 6 8 10 8 8 9 10 10 10 7 7 7 8 6 6 6 5 3 3 5 1 2 1 5 4 3 6 7 6 9 8 9 8
13 14 12 13 11 11 12 11 11 10 9 9 9 11 12 12 11 10 10 10 7 10 9 9 7 7 7 5 5 3 4 3 1 3 4 4 2 6 4 2 3 2 10
12 11 11 9 11 12 10 13 10 11 12 11 11 11 12 12 12 12 13 12 11 10 11 10 10 9 7 6 4 5 3 3 4 2 3 7 8 7 5 4 3 2 7
5 7 10 6 1 5 6 8 11 10 12 12 12 12 13 12 11 14 14 13 13 12 10 10 11 11 13 9 6 6 6 4 4 4 3 2 4 8 9 5 5 5 5
12 14 9 6 5 7 5 3 3 8 10 11 13 14 14 12 17 18 16 13 13 13 12 11 10 15 14 14 9 6 10 9 7 4 6 5 5 7 7 5 5 4 4
5 5 13 10 10 3 7 11 9 9 9 12 13 15 15 15 15 16 19 14 13 14 14 12 12 9 12 10 10 10 7 6 6 5 4 3 2 8 8 7 4 4 3
5 5 8 7 4 8 6 6 10 16 15 10 12 14 15 13 15 17 16 16 14 14 15 16 15 13 14 13 11 11 9 7 6 6 5 5 4 6 9 7 6 2 3
7 9 7 6 8 5 4 10 11 23 9 10 12 14 14 14 15 17 14 12 15 15 13 14 15 14 18 14 9 6 5 7 8 9 5 5 3 8 10 7 4 4 2
12 10 10 10 6 3 5 6 8 6 9 8 11 12 14 14 14 17 15 9 12 9 10 12 17 14 12 15 12 9 10 10 10 6 4 4 7 8 11 7 7 4 4
7 7 7 5 4 2 3 2 3 5 5 6 8 10 12 11 11 11 14 12 13 8 9 8 9 14 16 16 15 12 11 9 11 9 8 6 6 7 6 6 5 5 4
5 3 4 5 4 4 6 5 3 4 5 6 9 8 7 7 8 8 13 16 8 11 11 8 8 14 12 16 15 12 7 10 8 8 8 8 7 7 7 6 6 3 2
5 5 6 6 5 5 4 5 5 6 7 5 5 7 5 2 4 8 14 15 9 10 8 10 13 15 15 8 12 13 12 8 8 8 9 6 7 5 6 6 6 5 4
5 5 6 6 5 5 6 8 8 8 6 4 4 5 7 6 6 4 5 6 3 2 5 8 10 10 10 8 8 10 7 6 5 7 4 4 6 6 6 5 6 4 4
6 7 8 8 8 8 10 9 8 6 6 5 4 6 6 6 3 4 10 7 8 7 7 4 4 6 6 6 7 8 7 5 6 4 5 4 6 8 5 6 7 6 6
7 6 7 7 7 4 4 4 8 11 12 13 14 9 6 7 4 8 15 12 12 17 5 4 6 7 8 9 9 9 9 11 8 4 4 2 1 4 6 6 8 8 8
7 6 4 4 4 3 5 6 8 10 9 10 10 11 13 5 7 9 12 10 13 16 7 9 9 9 9 10 10 11 12 11 10 8 7 9 10 6 6 6 5 3 4
6 8 4 4 6 7 4 4 6 7 8 7 13 11 10 10 9 10 7 9 2 8 8 10 11 11 11 12 12 12 12 11 10 10 11 8 4 1 2 7 10 8 3
7 7 8 8 3 3 4 6 8 10 10 11 7 3 3 4 6 8 12 6 7 9 10 9 9 10 11 12 12 12 14 13 13 12 11 10 11 8 9 8 8 9 9
10 12 7 3 4 6 6 6 8 8 10 10 8 4 8 8 5 4 4 7 7 8 9 9 9 7 9 11 11 12 12 13 14 13 12 12 12 9 6 4 7 8 10
7 7 7 4 6 7 6 7 7 7 9 10 7 5 4 6 7 7 7 8 9 8 9 9 9 9 8 10 10 11 13 12 14 14 14 12 12 12 7 4 7 10 11
4 6 6 6 6 7 7 8 8 9 10 10 9 5 10 6 7 7 8 8 8 9 8 9 9 10 10 11 12 12 13 14 14 14 13 11 10 9 8 7 9 11 15
7 9 9 8 9 9 9 9 9 10 10 11 11 7 7 6 6 10 8 8 7 8 8 9 10 10 9 8 10 11 14 14 13 12 12 11 8 7 7 8 14 17 11
11 12 11 10 10 10 10 9 7 8 11 11 10 10 9 8 12 9 6 8 9 9 9 9 10 13 11 11 8 8 9 9 10 12 16 12 11 10 9 13 15 17 11
10 8 9 10 11 11 9 7 7 7 9 10 10 10 9 6 3 4 5 7 8 8 9 9 9 12 16 17 15 15 13 17 15 14 12 13 14 13 13 14 16 16 11
12 11 11 11 11 10 10 8 8 8 10 8 10 9 12 6 5 6 8 5 4 5 6 7 10 14 15 15 18 19 17 19 15 18 14 13 12 11 12 18 27 12 8
Wind_Direction
193 193 200 205 205 207 234 202 198 199 182 161 173 182 178 189 189 190 229 211 187 184 225 161 161 264 299 215 203 263 278 288 286 64 120 147 118 141 137 124 153 153 161
192 202 192 200 206 200 211 217 204 199 198 164 168 185 188 199 195 197 218 225 188 196 191 194 174 194 210 261 264 199 199 342 98 133 128 129 134 141 148 162 170 180 165
181 191 207 191 203 211 199 225 195 196 206 191 184 193 199 202 203 200 202 218 224 198 197 192 191 211 193 213 209 226 182 168 162 146 152 161 138 139 149 159 208 105 161
186 192 183 198 193 204 205 196 220 196 201 203 203 206 206 205 208 210 209 209 215 225 197 192 194 197 205 197 228 212 198 187 179 216 220 172 166 163 147 176 226 227 152
153 71 48 32 279 202 217 196 202 208 203 207 204 209 211 214 215 210 213 211 212 217 219 194 194 193 190 192 188 201 183 189 168 181 241 208 180 161 170 174 194 205 213
92 82 3 43 357 292 285 292 274 239 230 208 216 214 214 216 212 210 205 213 211 213 220 203 200 187 189 190 173 188 193 181 192 179 174 204 201 169 173 194 185 178 221
154 252 192 195 192 33 47 5 315 261 250 241 228 227 225 225 222 216 208 212 213 209 211 210 203 188 171 180 175 187 213 218 212 177 194 187 176 180 162 180 223 173 187
214 165 160 144 166 234 156 106 348 313 258 246 245 236 233 235 219 216 209 219 215 214 209 209 199 187 182 181 191 202 202 201 207 169 182 223 213 181 156 164 157 121 64
176 171 170 170 200 207 156 108 187 249 248 252 246 245 240 238 218 215 206 216 224 222 213 213 198 195 182 173 172 196 205 228 204 211 173 213 226 195 138 124 132 138 202
167 172 178 196 212 219 194 182 209 209 231 240 254 249 244 242 228 210 208 219 223 225 216 211 195 195 184 170 170 178 205 211 213 163 172 185 193 181 152 139 148 169 187
147 159 159 162 166 210 173 219 261 269 286 280 247 257 258 254 252 196 210 219 221 201 195 198 187 153 164 175 177 190 210 209 201 181 180 180 174 165 166 151 154 171 215
137 176 188 180 192 215 180 174 248 264 269 273 271 266 253 247 241 198 228 223 220 187 202 197 185 174 191 191 190 213 231 201 201 182 187 186 183 178 175 160 162 206 104
192 200 235 228 207 213 236 217 221 237 230 239 301 300 283 312 286 187 211 216 215 193 188 184 169 190 196 188 198 208 210 200 202 197 189 188 183 190 167 159 149 172 147
202 225 237 238 236 244 236 235 235 242 232 216 212 263 276 255 243 196 220 216 159 171 119 153 166 158 169 185 183 196 196 203 186 183 184 178 179 188 187 167 157 184 162
205 226 228 230 225 230 232 236 241 248 245 239 243 218 244 254 233 235 186 197 201 183 126 113 136 155 160 172 189 192 192 200 184 162 187 204 181 186 179 148 178 183 199
218 224 236 241 249 251 270 280 264 249 257 217 218 217 223 167 148 196 195 202 173 146 129 160 175 177 182 182 183 188 190 200 195 167 186 190 206 181 168 176 180 193 196
213 254 287 255 256 290 284 268 263 264 223 223 234 214 218 215 174 195 198 197 174 157 194 180 186 190 191 189 193 193 195 195 190 188 176 197 216 209 189 180 176 184 192
209 240 259 255 248 244 256 283 293 285 289 282 235 210 210 226 203 188 149 105 85 234 205 195 201 195 193 195 193 193 190 186 188 186 191 201 187 163 215 184 188 195 194
202 228 239 240 259 300 299 285 278 277 277 273 273 148 143 197 189 129 144 211 205 208 217 216 202 209 199 195 191 190 188 190 189 191 194 191 207 219 222 197 185 177 191
212 229 240 249 271 264 259 271 278 278 287 272 274 238 152 183 180 172 179 200 221 215 213 217 210 212 202 197 190 191 192 190 192 195 196 197 203 208 188 185 194 201 215
215 231 206 228 255 250 250 266 273 280 286 296 260 237 277 165 218 203 196 196 211 221 215 211 210 211 211 205 198 193 192 194 195 195 194 199 192 195 159 198 218 253 235
247 267 259 247 260 265 256 253 259 272 281 283 285 243 171 199 261 212 199 200 203 215 214 210 211 209 201 203 199 194 195 195 195 197 196 182 182 174 172 212 248 242 248
267 263 270 269 257 257 265 260 254 250 251 265 276 262 193 202 221 245 206 207 195 204 213 207 211 211 208 202 204 198 198 200 200 192 175 174 172 167 171 214 234 249 227
250 255 258 257 255 253 257 264 267 289 282 281 276 267 267 199 220 212 195 201 203 201 205 212 213 211 207 201 196 196 200 189 171 173 166 167 179 175 199 231 238 235 209
285 282 287 284 270 264 275 245 244 265 287 285 279 289 266 255 249 312 282 216 202 205 204 211 216 215 211 202 201 194 180 161 168 168 168 178 187 192 216 232 248 239 208
278 277 268 267 274 277 279 264 263 267 274 287 297 305 315 237 182 233 236 205 170 198 224 218 217 218 213 206 202 192 172 175 170 172 179 190 197 218 217 225 235 235 199